Weather History for KPRG - November, 2013

Change the Weather History Date:

Thursday, November 7, 2013

  Actual Average (KHUF) Record (KHUF)
Temperature  
Mean Temperature 39 °F 47 °F  
Max Temperature 49 °F 57 °F 75 °F (1965)
Min Temperature 29 °F 37 °F 18 °F (1971)
Degree Days  
Heating Degree Days 26 18  
Month to date heating degree days 119  
Since 1 July heating degree days 546  
Cooling Degree Days 0 0  
Month to date cooling degree days 0  
Year to date cooling degree days 993  
Moisture  
Dew Point 32 °F    
Average Humidity 81    
Maximum Humidity 96    
Minimum Humidity 53    
Precipitation  
Precipitation 0.00 in 0.12 in 0.76 in (1968)
Month to date precipitation 0.92  
Year to date precipitation 39.19  
Sea Level Pressure  
Sea Level Pressure 30.28 in    
Wind  
Wind Speed 6 mph (West)    
Max Wind Speed 16 mph    
Max Gust Speed 24 mph    
Visibility 10 miles    
Events      
T = Trace of Precipitation, MM = Missing Value Source: NWS Daily Summary

Daily Weather History Graph

Daily Weather History Graph

Search for Another Location

Airport or City:

Trip Planner

Search our weather history database for the weather conditions in past years. The results will help you decide how hot, cold, wet, or windy it might be!

Date:

Astronomy

Nov. 07, 2013 Rise Set
Actual Time 6:26 AM CST 4:41 PM CST
Civil Twilight 5:57 AM CST 5:10 PM CST
Nautical Twilight 5:25 AM CST 5:42 PM CST
Astronomical Twilight 4:54 AM CST 6:14 PM CST
Moon 10:34 AM CST (11/7) 8:53 PM CST (11/7)
Length of Visible Light 11h 12m
Length of Day
10h 15m
Waxing Crescent, 23% of the Moon is Illuminated
Nov 7
Waxing Crescent
Nov 9
First Quarter
Nov 17
Full
Nov 25
Last Quarter
Dec 2
New

Hourly Weather History & Observations

Time (CST) Temp. Windchill Dew Point Humidity Pressure Visibility Wind Dir Wind Speed Gust Speed Precip Events Conditions
12:15 AM 35.1 °F 32.2 °F 33.4 °F 94% 30.20 in 10.0 mi WNW 3.5 mph - N/A   Clear
12:35 AM 34.3 °F 31.4 °F 32.9 °F 94% 30.20 in 10.0 mi NW 3.5 mph - N/A   Clear
12:55 AM 33.8 °F 29.6 °F 32.2 °F 94% 30.20 in 10.0 mi NW 4.6 mph - N/A   Clear
1:15 AM 33.8 °F 29.6 °F 32.0 °F 93% 30.21 in 10.0 mi NW 4.6 mph - N/A   Clear
1:35 AM 33.1 °F 28.7 °F 31.8 °F 95% 30.22 in 10.0 mi WNW 4.6 mph - N/A   Clear
1:55 AM 32.5 °F 29.3 °F 31.3 °F 95% 30.22 in 10.0 mi NW 3.5 mph - N/A   Clear
2:15 AM 32.4 °F 27.9 °F 31.1 °F 95% 30.22 in 10.0 mi NW 4.6 mph - N/A   Clear
2:35 AM 32.4 °F 27.9 °F 30.7 °F 94% 30.24 in 10.0 mi NW 4.6 mph - N/A   Clear
2:55 AM 32.0 °F 27.5 °F 30.2 °F 93% 30.24 in 10.0 mi NW 4.6 mph - N/A   Clear
3:15 AM 32.0 °F 27.5 °F 30.2 °F 93% 30.24 in 10.0 mi WNW 4.6 mph - N/A   Clear
3:35 AM 31.6 °F 28.3 °F 29.8 °F 93% 30.24 in 10.0 mi NW 3.5 mph - N/A   Clear
3:55 AM 31.3 °F - 29.5 °F 93% 30.25 in 10.0 mi Calm Calm - N/A   Clear
4:15 AM 31.5 °F 26.8 °F 29.7 °F 93% 30.26 in 10.0 mi WNW 4.6 mph - N/A   Clear
4:35 AM 31.6 °F 27.0 °F 29.7 °F 92% 30.27 in 10.0 mi WNW 4.6 mph - N/A   Clear
4:55 AM 31.3 °F 27.9 °F 29.3 °F 92% 30.27 in 10.0 mi WNW 3.5 mph - N/A   Clear
5:15 AM 30.9 °F 27.5 °F 28.9 °F 92% 30.28 in 10.0 mi West 3.5 mph - N/A   Clear
5:35 AM 30.0 °F 26.5 °F 28.4 °F 94% 30.28 in 10.0 mi West 3.5 mph - N/A   Clear
5:55 AM 29.3 °F - 28.0 °F 95% 30.28 in 10.0 mi Calm Calm - N/A   Clear
6:15 AM 29.3 °F 25.6 °F 27.9 °F 94% 30.29 in 10.0 mi West 3.5 mph - N/A   Clear
6:35 AM 29.3 °F 24.3 °F 28.0 °F 95% 30.29 in 10.0 mi West 4.6 mph - N/A   Clear
6:55 AM 30.7 °F 24.9 °F 29.3 °F 94% 30.30 in 10.0 mi West 5.8 mph - N/A   Clear
7:15 AM 31.6 °F 27.0 °F 29.8 °F 93% 30.31 in 10.0 mi West 4.6 mph - N/A   Clear
7:35 AM 32.5 °F 27.1 °F 30.2 °F 91% 30.32 in 10.0 mi WSW 5.8 mph - N/A   Clear
7:55 AM 33.6 °F 28.4 °F 30.9 °F 90% 30.33 in 10.0 mi West 5.8 mph - N/A   Clear
8:15 AM 34.7 °F 30.6 °F 31.6 °F 89% 30.32 in 10.0 mi West 4.6 mph - N/A   Clear
8:35 AM 36.1 °F 30.6 °F 32.4 °F 86% 30.33 in 10.0 mi WSW 6.9 mph - N/A   Clear
8:55 AM 37.6 °F 32.3 °F 32.9 °F 83% 30.35 in 10.0 mi WSW 6.9 mph - N/A   Clear
9:15 AM 38.8 °F 34.6 °F 32.9 °F 79% 30.35 in 10.0 mi West 5.8 mph - N/A   Clear
9:35 AM 39.9 °F 36.7 °F 33.8 °F 79% 30.34 in 10.0 mi West 4.6 mph - N/A   Clear
9:55 AM 41.0 °F 38.0 °F 34.2 °F 77% 30.33 in 10.0 mi SW 4.6 mph - N/A   Clear
10:15 AM 42.8 °F 38.6 °F 35.2 °F 75% 30.33 in 10.0 mi SW 6.9 mph - N/A   Clear
10:35 AM 43.9 °F 41.3 °F 34.3 °F 69% 30.32 in 10.0 mi SW 4.6 mph - N/A   Clear
10:55 AM 45.0 °F 40.6 °F 33.1 °F 63% 30.32 in 10.0 mi WSW 8.1 mph - N/A   Clear
11:15 AM 46.0 °F 42.5 °F 32.0 °F 58% 30.32 in 10.0 mi West 6.9 mph 16.1 mph N/A   Clear
11:35 AM 46.8 °F - 30.4 °F 53% 30.31 in 10.0 mi WSW 10.4 mph 17.3 mph N/A   Clear
11:55 AM 47.3 °F - 30.9 °F 53% 30.29 in 10.0 mi WSW 9.2 mph 17.3 mph N/A   Clear
12:15 PM 47.8 °F - 32.9 °F 56% 30.28 in 10.0 mi West 16.1 mph - N/A   Clear
12:35 PM 48.4 °F - 32.9 °F 55% 30.28 in 10.0 mi West 12.7 mph 18.4 mph N/A   Scattered Clouds
12:55 PM 49.1 °F - 33.1 °F 54% 30.27 in 10.0 mi West 16.1 mph 21.9 mph N/A   Mostly Cloudy
1:15 PM 48.2 °F - 33.8 °F 58% 30.27 in 10.0 mi West 16.1 mph 21.9 mph N/A   Mostly Cloudy
1:35 PM 49.3 °F - 34.0 °F 56% 30.27 in 10.0 mi WSW 13.8 mph 21.9 mph N/A   Mostly Cloudy
1:55 PM 47.1 °F - 33.3 °F 59% 30.26 in 10.0 mi West 16.1 mph 24.2 mph N/A   Mostly Cloudy
2:15 PM 48.2 °F - 34.0 °F 58% 30.25 in 10.0 mi West 12.7 mph 18.4 mph N/A   Mostly Cloudy
2:35 PM 49.3 °F - 34.3 °F 56% 30.24 in 10.0 mi WSW 13.8 mph - N/A   Scattered Clouds
2:55 PM 48.9 °F - 33.6 °F 56% 30.24 in 10.0 mi West 12.7 mph - N/A   Scattered Clouds
3:15 PM 47.3 °F - 34.2 °F 60% 30.24 in 10.0 mi WSW 11.5 mph - N/A   Mostly Cloudy
3:35 PM 47.5 °F - 35.1 °F 62% 30.24 in 10.0 mi WSW 9.2 mph 16.1 mph N/A   Overcast
3:55 PM 47.1 °F - 35.8 °F 65% 30.24 in 10.0 mi WSW 9.2 mph - N/A   Mostly Cloudy
4:35 PM 46.4 °F 41.9 °F 36.5 °F 68% 30.23 in 10.0 mi WSW 9.2 mph - N/A   Mostly Cloudy
4:55 PM 45.1 °F 39.9 °F 36.5 °F 72% 30.23 in 10.0 mi WSW 10.4 mph - N/A   Scattered Clouds
5:15 PM 44.6 °F 39.2 °F 36.7 °F 74% 30.24 in 10.0 mi West 10.4 mph - N/A   Scattered Clouds
5:35 PM 42.3 °F 35.5 °F 35.4 °F 77% 30.25 in 10.0 mi West 12.7 mph - N/A   Scattered Clouds
5:55 PM 43.0 °F 36.0 °F 32.2 °F 66% 30.26 in 10.0 mi WNW 13.8 mph 19.6 mph N/A   Clear
6:15 PM 41.7 °F 34.4 °F 32.0 °F 68% 30.27 in 10.0 mi WNW 13.8 mph 18.4 mph N/A   Clear
6:35 PM 39.9 °F 32.5 °F 32.5 °F 75% 30.28 in 10.0 mi NW 12.7 mph - N/A   Clear
6:55 PM 38.1 °F 30.7 °F 32.9 °F 81% 30.28 in 10.0 mi NW 11.5 mph - N/A   Clear
7:15 PM 36.3 °F 30.1 °F 32.0 °F 84% 30.28 in 10.0 mi NW 8.1 mph - N/A   Clear
7:35 PM 34.9 °F 29.9 °F 32.0 °F 89% 30.29 in 10.0 mi NW 5.8 mph - N/A   Clear
7:55 PM 34.0 °F 29.8 °F 31.6 °F 91% 30.30 in 10.0 mi NW 4.6 mph - N/A   Clear
8:15 PM 33.1 °F 28.7 °F 31.1 °F 92% 30.30 in 10.0 mi WNW 4.6 mph - N/A   Clear
8:35 PM 32.2 °F 28.9 °F 30.7 °F 94% 30.31 in 10.0 mi WNW 3.5 mph - N/A   Clear
8:55 PM 32.4 °F 26.9 °F 31.1 °F 95% 30.31 in 10.0 mi WNW 5.8 mph - N/A   Clear
9:15 PM 32.0 °F 28.7 °F 30.9 °F 96% 30.31 in 10.0 mi WNW 3.5 mph - N/A   Clear
9:35 PM 31.6 °F 26.0 °F 30.2 °F 94% 30.31 in 7.0 mi West 5.8 mph - N/A   Clear
9:55 PM 30.9 °F 26.2 °F 29.3 °F 94% 30.31 in 10.0 mi West 4.6 mph - N/A   Clear
10:15 PM 30.9 °F 27.5 °F 29.3 °F 94% 30.31 in 10.0 mi West 3.5 mph - N/A   Clear
10:35 PM 30.9 °F 26.2 °F 29.3 °F 94% 30.30 in 10.0 mi West 4.6 mph - N/A   Clear
10:55 PM 31.1 °F - 29.3 °F 93% 30.30 in 10.0 mi Calm Calm - N/A   Clear
11:15 PM 30.6 °F - 28.6 °F 92% 30.30 in 10.0 mi Calm Calm - N/A   Clear
11:35 PM 29.3 °F - 27.9 °F 94% 30.30 in 10.0 mi Calm Calm - N/A   Clear
11:55 PM 29.3 °F - 28.2 °F 96% 30.30 in 10.0 mi Calm Calm - N/A   Clear